Location: Moscow
(55.7500°N, 37.5830°E)
Time: 02:41:38
(UTC+03:00)

Kosmos-337 - Pass Details

Date: 10 July 2022
Orbit: 1467 x 1552 km, 74.0° (Epoch: 13 August)

Event Time Altitude Azimuth Distance (km) Brightness Sun altitude
Rises 00:49:11 0° 332° (NNW) 4,737 ? -11.9°
Reaches altitude 10° 00:52:12 10° 330° (NNW) 3,749 ? -11.9°
Maximum altitude 01:01:11 63° 252° (WSW) 1,695 ? -11.8°
Enters shadow 01:09:17 13° 176° (S) 3,443 ? -11.6°
